TimeCDT,TemperatureF,Dew PointF,Humidity,Sea Level PressureIn,VisibilityMPH,Wind Direction,Wind SpeedMPH,Gust SpeedMPH,PrecipitationIn,Events,Conditions,WindDirDegrees,DateUTC
12:54 AM,77.0,75.0,94,29.87,8.0,SSW,3.5,-,N/A,,Scattered Clouds,200,2013-07-10 05:54:00
1:54 AM,75.9,75.0,97,29.86,7.0,SSW,5.8,-,N/A,,Scattered Clouds,200,2013-07-10 06:54:00
2:54 AM,78.1,75.9,93,29.86,8.0,West,5.8,-,N/A,,Overcast,270,2013-07-10 07:54:00
3:54 AM,77.0,75.0,94,29.87,8.0,West,4.6,-,N/A,,Scattered Clouds,280,2013-07-10 08:54:00
4:15 AM,77.0,73.4,89,29.88,10.0,NW,6.9,-,N/A,,Mostly Cloudy,320,2013-07-10 09:15:00
4:42 AM,75.2,73.4,94,29.88,10.0,NNW,8.1,-,N/A,,Scattered Clouds,330,2013-07-10 09:42:00
4:54 AM,75.9,73.0,91,29.87,10.0,NW,8.1,-,N/A,,Scattered Clouds,320,2013-07-10 09:54:00
5:54 AM,75.0,71.1,87,29.87,10.0,NNW,8.1,-,N/A,,Mostly Cloudy,340,2013-07-10 10:54:00
6:54 AM,75.9,69.1,79,29.88,10.0,NNW,6.9,-,N/A,,Partly Cloudy,330,2013-07-10 11:54:00
7:54 AM,77.0,68.0,74,29.90,10.0,NNW,11.5,18.4,N/A,,Partly Cloudy,330,2013-07-10 12:54:00
8:54 AM,78.1,68.0,71,29.90,10.0,NNW,10.4,-,N/A,,Scattered Clouds,340,2013-07-10 13:54:00
9:54 AM,77.0,66.0,69,29.91,10.0,North,11.5,-,N/A,,Scattered Clouds,350,2013-07-10 14:54:00
10:54 AM,79.0,66.0,64,29.93,10.0,North,15.0,-,N/A,,Scattered Clouds,360,2013-07-10 15:54:00
11:54 AM,80.1,63.0,56,29.96,10.0,North,10.4,-,N/A,,Scattered Clouds,360,2013-07-10 16:54:00
12:54 PM,81.0,62.1,52,29.96,10.0,NW,8.1,-,N/A,,Scattered Clouds,320,2013-07-10 17:54:00
1:54 PM,81.0,61.0,50,29.96,10.0,North,10.4,17.3,N/A,,Partly Cloudy,350,2013-07-10 18:54:00
2:54 PM,81.0,60.1,49,29.95,10.0,NNW,13.8,-,N/A,,Partly Cloudy,330,2013-07-10 19:54:00
3:54 PM,81.0,57.9,45,29.95,10.0,North,16.1,19.6,N/A,,Partly Cloudy,360,2013-07-10 20:54:00
4:54 PM,80.1,57.9,47,29.94,10.0,North,16.1,-,N/A,,Partly Cloudy,360,2013-07-10 21:54:00
5:54 PM,79.0,59.0,50,29.94,10.0,NNW,12.7,-,N/A,,Partly Cloudy,330,2013-07-10 22:54:00
6:54 PM,77.0,55.9,48,29.95,10.0,NNW,11.5,-,N/A,,Partly Cloudy,340,2013-07-10 23:54:00
7:54 PM,73.9,57.0,55,29.96,10.0,North,6.9,-,N/A,,Clear,350,2013-07-11 00:54:00
8:54 PM,71.1,57.0,61,29.97,10.0,North,4.6,-,N/A,,Clear,350,2013-07-11 01:54:00
9:54 PM,69.1,59.0,70,30.00,10.0,Calm,Calm,-,N/A,,Clear,0,2013-07-11 02:54:00
10:54 PM,68.0,61.0,78,30.02,10.0,Calm,Calm,-,N/A,,Mostly Cloudy,0,2013-07-11 03:54:00
11:54 PM,69.1,61.0,75,30.03,10.0,Calm,Calm,-,N/A,,Mostly Cloudy,0,2013-07-11 04:54:00